Terug naar catalogus

DELTA 1 DEB

ActiefLEO
NORAD 10648·DEBRIS·🇺🇸 United States

Gelanceerd Jul 29, 1976 vanaf Vandenberg Space Force Base

Loading…

Volgende Passages (komende 24 uur)

TLE

VersSource: Space-Track

Epoch: Sep 14, 2026, 00:59 UTC

1 10648U 76077J   26257.04103755  .00000158  00000-0  18668-2 0  9998
2 10648 101.9512 288.7010 0140178 193.7294 194.8354 12.20081649231072

Volg DELTA 1 DEB in realtime met AllMySat

Download on the App Store